Location: Nairn
(57.5833°N, 3.8667°W)
Time: 08:54:12
(UTC+00:00)

N. Korean satellite - Pass Details

Date: 02 November 2020
Orbit: 452 x 504 km, 97.2° (Epoch: 25 November)

Event Time Altitude Azimuth Distance (km) Brightness Sun altitude
Rises 18:08:35 0° 216° (SW) 2,515 10.9 -13.9°
Reaches altitude 10° 18:11:42 10° 247° (WSW) 1,631 10.5 -14.4°
Maximum altitude 18:13:15 12° 273° (W) 1,482 10.3 -14.6°
Drops below altitude 10° 18:14:48 10° 300° (WNW) 1,626 10.1 -14.8°
Sets 18:17:54 0° 331° (NNW) 2,499 10.5 -15.2°
